STARLINK-6081 (56108 NORAD) Tracking and Keplerian Element Data

This shows tracking and keplerian element data for the satellite.

Feedback or suggestion? Click here.




ElementValue
Catalog56108
NameSTARLINK-6081
Epoch Orbit652
Epoch Day127.25001157
Epoch Year2023
RAAN37.8058
Inclination43.0006
Eccentricity0.0001471
Argument of Perigee272.3699
Mean Anonmoly105.838
Mean Motion15.29227412
Decay Rate-0.00900917
L11 56108U 23046R 23127.25001157 -.00900917 00000+0 -33940-1 0 9998
L22 56108 43.0006 37.8058 0001471 272.3699 105.8380 15.29227412 6520



Live tracking and technical data element details for STARLINK-6081 (NORAD 56108). STARLINK-6081 can be tracked NOW for your location showing map with azimuth and elevation plus other details from your city location.







IsCatalogInMostPopularTable: catalog: 56108, numindb: 2
Update: records affected: 1



GetName: 56108 STARLINK-6081

Hit Count: updated at: Sun, 04 Jun 2023 23:17:30 GMT